Time,TemperatureF,DewpointF,PressureIn,WindDirection,WindDirectionDegrees,WindSpeedMPH,WindSpeedGustMPH,Humidity,HourlyPrecipIn,Conditions,Clouds,dailyrainin,SoftwareType,DateUTC
2013-05-31 00:00:00,65.0,63.2,30.02,WSW,239,0.0,0.0,94,0.00,CLR,,0.00,WeatherDisplay:10.37,2013-05-31 04:00:00,
2013-05-31 00:05:00,64.9,63.1,30.02,WSW,239,0.0,0.0,94,0.00,CLR,,0.00,WeatherDisplay:10.37,2013-05-31 04:05:00,
2013-05-31 00:10:00,64.8,63.0,30.02,WSW,239,0.0,0.0,94,0.00,CLR,,0.00,WeatherDisplay:10.37,2013-05-31 04:10:00,
2013-05-31 00:15:00,64.7,62.9,30.02,WSW,239,0.0,0.0,94,0.00,CLR,,0.00,WeatherDisplay:10.37,2013-05-31 04:15:00,
2013-05-31 00:20:00,64.6,62.8,30.02,WSW,239,0.0,0.0,94,0.00,CLR,,0.00,WeatherDisplay:10.37,2013-05-31 04:20:00,
2013-05-31 00:25:00,64.5,62.7,30.03,WSW,239,0.0,0.0,94,0.00,CLR,,0.00,WeatherDisplay:10.37,2013-05-31 04:25:00,
2013-05-31 00:30:00,64.4,62.6,30.03,WSW,239,0.0,0.0,94,0.00,CLR,,0.00,WeatherDisplay:10.37,2013-05-31 04:30:00,
2013-05-31 00:40:00,64.2,62.7,30.03,WSW,239,0.0,0.0,95,0.00,CLR,,0.00,WeatherDisplay:10.37,2013-05-31 04:40:00,
2013-05-31 00:45:00,64.0,62.2,30.03,WSW,239,0.0,0.0,94,0.00,CLR,,0.00,WeatherDisplay:10.37,2013-05-31 04:45:00,
2013-05-31 00:50:00,63.9,62.1,30.03,WSW,239,0.0,0.0,94,0.00,CLR,,0.00,WeatherDisplay:10.37,2013-05-31 04:50:00,
2013-05-31 00:55:00,63.8,62.4,30.03,WSW,239,0.0,0.0,95,0.00,CLR,,0.00,WeatherDisplay:10.37,2013-05-31 04:55:00,
2013-05-31 01:00:00,63.8,62.3,30.03,WSW,239,0.0,0.0,95,0.00,CLR,,0.00,WeatherDisplay:10.37,2013-05-31 05:00:00,
2013-05-31 01:05:00,63.7,62.2,30.03,WSW,239,0.0,0.0,95,0.00,CLR,,0.00,WeatherDisplay:10.37,2013-05-31 05:05:00,
2013-05-31 01:15:00,63.5,62.0,30.03,WSW,239,0.0,0.0,95,0.00,CLR,,0.00,WeatherDisplay:10.37,2013-05-31 05:15:00,
2013-05-31 01:20:00,63.4,61.9,30.03,WSW,239,0.0,0.0,95,0.00,CLR,,0.00,WeatherDisplay:10.37,2013-05-31 05:20:00,
2013-05-31 01:25:00,63.3,61.8,30.03,WSW,239,0.0,0.0,95,0.00,CLR,,0.00,WeatherDisplay:10.37,2013-05-31 05:25:00,
2013-05-31 01:30:00,63.2,61.7,30.03,WSW,239,0.0,0.0,95,0.00,CLR,,0.00,WeatherDisplay:10.37,2013-05-31 05:30:00,
2013-05-31 01:35:00,63.1,61.6,30.03,WSW,239,0.0,0.0,95,0.00,CLR,,0.00,WeatherDisplay:10.37,2013-05-31 05:35:00,
2013-05-31 01:40:00,63.0,61.5,30.03,WSW,239,0.0,0.0,95,0.00,CLR,,0.00,WeatherDisplay:10.37,2013-05-31 05:40:00,
2013-05-31 01:45:00,62.9,61.5,30.03,WSW,239,0.0,0.0,95,0.00,CLR,,0.00,WeatherDisplay:10.37,2013-05-31 05:45:00,
2013-05-31 01:55:00,62.7,61.2,30.03,WSW,239,0.0,0.0,95,0.00,CLR,,0.00,WeatherDisplay:10.37,2013-05-31 05:55:00,
2013-05-31 02:00:00,62.6,61.1,30.03,WSW,239,0.0,0.0,95,0.00,CLR,,0.00,WeatherDisplay:10.37,2013-05-31 06:00:00,
2013-05-31 02:05:00,62.5,61.0,30.03,WSW,239,0.0,0.0,95,0.00,CLR,,0.00,WeatherDisplay:10.37,2013-05-31 06:05:00,
2013-05-31 02:10:00,62.5,61.0,30.03,WSW,239,0.0,0.0,95,0.00,CLR,,0.00,WeatherDisplay:10.37,2013-05-31 06:10:00,
2013-05-31 02:15:00,62.3,60.9,30.04,WSW,239,0.0,0.0,95,0.00,CLR,,0.00,WeatherDisplay:10.37,2013-05-31 06:15:00,
2013-05-31 02:20:00,62.2,60.8,30.04,WSW,239,0.0,0.0,95,0.00,CLR,,0.00,WeatherDisplay:10.37,2013-05-31 06:20:00,
2013-05-31 02:25:00,62.1,60.7,30.04,WSW,239,0.0,0.0,95,0.00,CLR,,0.00,WeatherDisplay:10.37,2013-05-31 06:25:00,
2013-05-31 02:30:00,62.1,60.6,30.04,WSW,239,0.0,0.0,95,0.00,CLR,,0.00,WeatherDisplay:10.37,2013-05-31 06:30:00,
2013-05-31 02:35:00,62.0,60.6,30.04,WSW,239,0.0,0.0,95,0.00,CLR,,0.00,WeatherDisplay:10.37,2013-05-31 06:35:00,
2013-05-31 02:40:00,61.9,60.5,30.03,WSW,239,0.0,0.0,95,0.00,CLR,,0.00,WeatherDisplay:10.37,2013-05-31 06:40:00,
2013-05-31 02:45:00,61.8,60.4,30.03,WSW,239,0.0,0.0,95,0.00,CLR,,0.00,WeatherDisplay:10.37,2013-05-31 06:45:00,
2013-05-31 02:50:00,61.8,60.4,30.03,WSW,239,0.0,0.0,95,0.00,CLR,,0.00,WeatherDisplay:10.37,2013-05-31 06:50:00,
2013-05-31 02:55:00,61.7,60.5,30.03,WSW,239,0.0,0.0,96,0.00,CLR,,0.00,WeatherDisplay:10.37,2013-05-31 06:55:00,
2013-05-31 03:00:00,61.6,60.2,30.03,WSW,239,0.0,0.0,95,0.00,CLR,,0.00,WeatherDisplay:10.37,2013-05-31 07:00:00,
2013-05-31 03:05:00,61.5,60.1,30.03,WSW,239,0.0,0.0,95,0.00,CLR,,0.00,WeatherDisplay:10.37,2013-05-31 07:05:00,
2013-05-31 03:10:00,61.4,60.0,30.03,WSW,239,0.0,0.0,95,0.00,CLR,,0.00,WeatherDisplay:10.37,2013-05-31 07:10:00,
2013-05-31 03:15:00,61.4,60.0,30.03,WSW,239,0.0,0.0,95,0.00,CLR,,0.00,WeatherDisplay:10.37,2013-05-31 07:15:00,
2013-05-31 03:20:00,61.3,60.2,30.03,WSW,239,0.0,0.0,96,0.00,CLR,,0.00,WeatherDisplay:10.37,2013-05-31 07:20:00,
2013-05-31 03:25:00,61.3,60.1,30.03,WSW,239,0.0,0.0,96,0.00,CLR,,0.00,WeatherDisplay:10.37,2013-05-31 07:25:00,
2013-05-31 03:30:00,61.2,60.0,30.03,WSW,239,0.0,0.0,96,0.00,CLR,,0.00,WeatherDisplay:10.37,2013-05-31 07:30:00,
2013-05-31 03:35:00,61.1,60.0,30.03,WSW,239,0.0,0.0,96,0.00,CLR,,0.00,WeatherDisplay:10.37,2013-05-31 07:35:00,
2013-05-31 03:40:00,60.9,59.5,30.03,WSW,239,0.0,0.0,95,0.00,CLR,,0.00,WeatherDisplay:10.37,2013-05-31 07:40:00,
2013-05-31 03:45:00,60.8,59.4,30.03,WSW,239,0.0,0.0,95,0.00,CLR,,0.00,WeatherDisplay:10.37,2013-05-31 07:45:00,
2013-05-31 03:50:00,60.7,59.3,30.03,WSW,239,0.0,0.0,95,0.00,CLR,,0.00,WeatherDisplay:10.37,2013-05-31 07:50:00,
2013-05-31 03:55:00,60.5,59.1,30.03,WSW,239,0.0,0.0,95,0.00,CLR,,0.00,WeatherDisplay:10.37,2013-05-31 07:55:00,
2013-05-31 04:00:00,60.4,59.3,30.03,WSW,239,0.0,0.0,96,0.00,CLR,,0.00,WeatherDisplay:10.37,2013-05-31 08:00:00,
2013-05-31 04:05:00,60.3,58.9,30.03,WSW,239,0.0,0.0,95,0.00,CLR,,0.00,WeatherDisplay:10.37,2013-05-31 08:05:00,
2013-05-31 04:10:00,60.2,58.8,30.04,WSW,239,0.0,0.0,95,0.00,CLR,,0.00,WeatherDisplay:10.37,2013-05-31 08:10:00,
2013-05-31 04:15:00,60.1,59.0,30.04,WSW,239,0.0,0.0,96,0.00,CLR,,0.00,WeatherDisplay:10.37,2013-05-31 08:15:00,
2013-05-31 04:20:00,60.0,58.9,30.04,WSW,239,0.0,0.0,96,0.00,CLR,,0.00,WeatherDisplay:10.37,2013-05-31 08:20:00,
2013-05-31 04:25:00,59.9,58.8,30.04,WSW,239,0.0,0.0,96,0.00,CLR,,0.00,WeatherDisplay:10.37,2013-05-31 08:25:00,
2013-05-31 04:30:00,59.8,58.7,30.04,WSW,239,0.0,0.0,96,0.00,CLR,,0.00,WeatherDisplay:10.37,2013-05-31 08:30:00,
2013-05-31 04:35:00,59.7,58.6,30.04,WSW,239,0.0,0.0,96,0.00,CLR,,0.00,WeatherDisplay:10.37,2013-05-31 08:35:00,
2013-05-31 04:40:00,59.6,58.5,30.04,WSW,239,0.0,0.0,96,0.00,CLR,,0.00,WeatherDisplay:10.37,2013-05-31 08:40:00,
2013-05-31 04:45:00,59.6,58.5,30.05,WSW,239,0.0,0.0,96,0.00,CLR,,0.00,WeatherDisplay:10.37,2013-05-31 08:45:00,
2013-05-31 04:50:00,59.5,58.4,30.05,WSW,239,0.0,0.0,96,0.00,CLR,,0.00,WeatherDisplay:10.37,2013-05-31 08:50:00,
2013-05-31 04:55:00,59.5,58.4,30.05,WSW,239,0.0,0.0,96,0.00,CLR,,0.00,WeatherDisplay:10.37,2013-05-31 08:55:00,
2013-05-31 05:00:00,59.5,58.4,30.05,WSW,239,0.0,0.0,96,0.00,CLR,,0.00,WeatherDisplay:10.37,2013-05-31 09:00:00,
2013-05-31 05:05:00,59.4,58.3,30.05,WSW,239,0.0,0.0,96,0.00,CLR,,0.00,WeatherDisplay:10.37,2013-05-31 09:05:00,
2013-05-31 05:10:00,59.3,58.2,30.05,WSW,239,0.0,0.0,96,0.00,CLR,,0.00,WeatherDisplay:10.37,2013-05-31 09:10:00,
2013-05-31 05:15:00,59.3,58.2,30.04,WSW,239,0.0,0.0,96,0.00,CLR,,0.00,WeatherDisplay:10.37,2013-05-31 09:15:00,
2013-05-31 05:20:00,59.2,58.1,30.04,WSW,239,0.0,0.0,96,0.00,CLR,,0.00,WeatherDisplay:10.37,2013-05-31 09:20:00,
2013-05-31 05:25:00,59.1,58.0,30.04,WSW,239,0.0,0.0,96,0.00,CLR,,0.00,WeatherDisplay:10.37,2013-05-31 09:25:00,
2013-05-31 05:30:00,59.0,57.9,30.05,WSW,239,0.0,0.0,96,0.00,CLR,,0.00,WeatherDisplay:10.37,2013-05-31 09:30:00,
2013-05-31 05:35:00,58.9,57.8,30.05,WSW,239,0.0,0.0,96,0.00,CLR,,0.00,WeatherDisplay:10.37,2013-05-31 09:35:00,
2013-05-31 05:40:00,58.9,57.8,30.05,WSW,239,0.0,0.0,96,0.00,CLR,,0.00,WeatherDisplay:10.37,2013-05-31 09:40:00,
2013-05-31 05:45:00,58.9,57.7,30.05,WSW,239,0.0,0.0,96,0.00,CLR,,0.00,WeatherDisplay:10.37,2013-05-31 09:45:00,
2013-05-31 05:50:00,58.8,57.7,30.05,WSW,239,0.0,0.0,96,0.00,CLR,,0.00,WeatherDisplay:10.37,2013-05-31 09:50:00,
2013-05-31 05:55:00,58.8,57.7,30.06,WSW,239,0.0,0.0,96,0.00,CLR,,0.00,WeatherDisplay:10.37,2013-05-31 09:55:00,
2013-05-31 06:00:00,58.9,57.8,30.06,WSW,239,0.0,0.0,96,0.00,CLR,,0.00,WeatherDisplay:10.37,2013-05-31 10:00:00,
2013-05-31 06:05:00,58.9,57.8,30.06,WSW,239,0.0,0.0,96,0.00,CLR,,0.00,WeatherDisplay:10.37,2013-05-31 10:05:00,
2013-05-31 06:10:00,59.0,57.9,30.06,WSW,239,0.0,0.0,96,0.00,CLR,,0.00,WeatherDisplay:10.37,2013-05-31 10:10:00,
2013-05-31 06:15:00,59.1,58.0,30.06,WSW,239,0.0,0.0,96,0.00,CLR,,0.00,WeatherDisplay:10.37,2013-05-31 10:15:00,
2013-05-31 06:20:00,59.2,58.0,30.06,WSW,239,0.0,0.0,96,0.00,CLR,,0.00,WeatherDisplay:10.37,2013-05-31 10:20:00,
2013-05-31 06:25:00,59.3,58.2,30.06,WSW,239,0.0,0.0,96,0.00,CLR,,0.00,WeatherDisplay:10.37,2013-05-31 10:25:00,
2013-05-31 06:30:00,59.4,58.5,30.06,WSW,239,0.0,0.0,97,0.00,CLR,,0.00,WeatherDisplay:10.37,2013-05-31 10:30:00,
2013-05-31 06:35:00,59.5,58.6,30.06,WSW,239,0.0,0.0,97,0.00,CLR,,0.00,WeatherDisplay:10.37,2013-05-31 10:35:00,
2013-05-31 06:40:00,59.7,58.6,30.06,WSW,239,0.0,0.0,96,0.00,CLR,,0.00,WeatherDisplay:10.37,2013-05-31 10:40:00,
2013-05-31 06:45:00,59.9,58.8,30.06,WSW,239,0.0,0.0,96,0.00,CLR,,0.00,WeatherDisplay:10.37,2013-05-31 10:45:00,
2013-05-31 06:50:00,60.0,59.2,30.06,WSW,239,0.0,0.0,97,0.00,CLR,,0.00,WeatherDisplay:10.37,2013-05-31 10:50:00,
2013-05-31 06:55:00,60.2,59.4,30.06,WSW,239,0.0,0.0,97,0.00,CLR,,0.00,WeatherDisplay:10.37,2013-05-31 10:55:00,
2013-05-31 07:00:00,60.5,59.6,30.07,WSW,239,0.0,0.0,97,0.00,CLR,,0.00,WeatherDisplay:10.37,2013-05-31 11:00:00,
2013-05-31 07:05:00,60.7,59.9,30.07,WSW,239,0.0,0.0,97,0.00,CLR,,0.00,WeatherDisplay:10.37,2013-05-31 11:05:00,
2013-05-31 07:10:00,61.0,60.2,30.07,WSW,239,0.0,0.0,97,0.00,CLR,,0.00,WeatherDisplay:10.37,2013-05-31 11:10:00,
2013-05-31 07:15:00,61.3,60.5,30.07,WSW,239,0.0,0.0,97,0.00,CLR,,0.00,WeatherDisplay:10.37,2013-05-31 11:15:00,
2013-05-31 07:20:00,61.7,60.8,30.07,WSW,239,0.0,0.0,97,0.00,CLR,,0.00,WeatherDisplay:10.37,2013-05-31 11:20:00,
2013-05-31 07:25:00,62.0,61.1,30.07,WSW,239,0.0,0.0,97,0.00,CLR,,0.00,WeatherDisplay:10.37,2013-05-31 11:25:00,
2013-05-31 07:30:00,62.3,61.5,30.07,WSW,239,0.0,0.0,97,0.00,CLR,,0.00,WeatherDisplay:10.37,2013-05-31 11:30:00,
2013-05-31 07:35:00,62.9,62.0,30.07,WSW,239,0.0,0.0,97,0.00,CLR,,0.00,WeatherDisplay:10.37,2013-05-31 11:35:00,
2013-05-31 07:40:00,63.4,62.5,30.07,WSW,239,0.0,0.0,97,0.00,CLR,,0.00,WeatherDisplay:10.37,2013-05-31 11:40:00,
2013-05-31 07:45:00,64.0,63.1,30.06,WSW,239,0.0,0.0,97,0.00,CLR,,0.00,WeatherDisplay:10.37,2013-05-31 11:45:00,
2013-05-31 07:50:00,64.6,63.7,30.07,WSW,239,0.0,0.0,97,0.00,CLR,,0.00,WeatherDisplay:10.37,2013-05-31 11:50:00,
2013-05-31 07:55:00,65.4,64.5,30.07,WSW,239,0.0,0.0,97,0.00,CLR,,0.00,WeatherDisplay:10.37,2013-05-31 11:55:00,
2013-05-31 08:00:00,66.4,65.5,30.07,WSW,239,0.0,0.0,97,0.00,CLR,,0.00,WeatherDisplay:10.37,2013-05-31 12:00:00,
2013-05-31 08:05:00,67.3,66.4,30.07,WSW,239,0.0,0.0,97,0.00,CLR,,0.00,WeatherDisplay:10.37,2013-05-31 12:05:00,
2013-05-31 08:10:00,68.1,67.2,30.07,WSW,239,0.0,0.0,97,0.00,CLR,,0.00,WeatherDisplay:10.37,2013-05-31 12:10:00,
2013-05-31 08:15:00,68.7,67.8,30.06,WSW,239,0.0,0.0,97,0.00,CLR,,0.00,WeatherDisplay:10.37,2013-05-31 12:15:00,
2013-05-31 08:20:00,69.2,68.3,30.06,WSW,239,0.0,0.0,97,0.00,CLR,,0.00,WeatherDisplay:10.37,2013-05-31 12:20:00,
2013-05-31 08:25:00,69.8,68.9,30.06,WSW,239,0.0,0.0,97,0.00,CLR,,0.00,WeatherDisplay:10.37,2013-05-31 12:25:00,
2013-05-31 08:30:00,70.3,69.4,30.06,WSW,239,0.0,0.0,97,0.00,CLR,,0.00,WeatherDisplay:10.37,2013-05-31 12:30:00,
2013-05-31 08:35:00,70.8,69.9,30.06,WSW,239,0.0,0.0,97,0.00,CLR,,0.00,WeatherDisplay:10.37,2013-05-31 12:35:00,
2013-05-31 08:40:00,71.5,70.6,30.06,WSW,239,0.0,0.0,97,0.00,CLR,,0.00,WeatherDisplay:10.37,2013-05-31 12:40:00,
2013-05-31 08:45:00,72.1,69.9,30.06,WSW,239,0.0,0.0,93,0.00,CLR,,0.00,WeatherDisplay:10.37,2013-05-31 12:45:00,
2013-05-31 08:50:00,72.7,70.0,30.06,WSW,239,0.0,0.0,91,0.00,CLR,,0.00,WeatherDisplay:10.37,2013-05-31 12:50:00,
2013-05-31 08:55:00,73.4,69.6,30.06,WSW,239,0.0,0.0,88,0.00,CLR,,0.00,WeatherDisplay:10.37,2013-05-31 12:55:00,
2013-05-31 09:00:00,74.1,70.3,30.06,WSW,239,0.0,0.0,88,0.00,CLR,,0.00,WeatherDisplay:10.37,2013-05-31 13:00:00,
2013-05-31 09:05:00,74.7,69.9,30.06,WSW,239,0.0,0.0,85,0.00,CLR,,0.00,WeatherDisplay:10.37,2013-05-31 13:05:00,
2013-05-31 09:10:00,75.3,69.0,30.06,WSW,240,0.0,0.0,81,0.00,CLR,,0.00,WeatherDisplay:10.37,2013-05-31 13:10:00,
2013-05-31 09:15:00,75.9,69.0,30.06,WSW,244,0.0,0.0,79,0.00,CLR,,0.00,WeatherDisplay:10.37,2013-05-31 13:15:00,
2013-05-31 09:20:00,76.7,69.7,30.06,WSW,246,0.0,0.0,79,0.00,CLR,,0.00,WeatherDisplay:10.37,2013-05-31 13:20:00,
2013-05-31 09:25:00,77.4,70.4,30.05,WSW,250,0.0,0.0,79,0.00,CLR,,0.00,WeatherDisplay:10.37,2013-05-31 13:25:00,
2013-05-31 09:30:00,78.0,70.6,30.05,WSW,254,0.0,0.0,78,0.00,CLR,,0.00,WeatherDisplay:10.37,2013-05-31 13:30:00,
2013-05-31 09:35:00,78.4,69.4,30.05,WSW,255,1.0,2.0,74,0.00,CLR,,0.00,WeatherDisplay:10.37,2013-05-31 13:35:00,
2013-05-31 09:40:00,78.9,69.5,30.05,WSW,256,0.0,3.0,73,0.00,CLR,,0.00,WeatherDisplay:10.37,2013-05-31 13:40:00,
2013-05-31 09:45:00,79.3,70.3,30.05,West,259,0.0,0.0,74,0.00,CLR,,0.00,WeatherDisplay:10.37,2013-05-31 13:45:00,
2013-05-31 09:50:00,79.5,69.7,30.04,West,260,0.0,0.0,72,0.00,CLR,,0.00,WeatherDisplay:10.37,2013-05-31 13:50:00,
2013-05-31 09:55:00,79.9,69.2,30.04,West,262,0.0,1.0,70,0.00,CLR,,0.00,WeatherDisplay:10.37,2013-05-31 13:55:00,
2013-05-31 10:00:00,80.3,71.2,30.04,West,260,0.0,2.0,74,0.00,CLR,,0.00,WeatherDisplay:10.37,2013-05-31 14:00:00,
2013-05-31 10:05:00,80.6,71.6,30.04,SSW,209,1.0,2.0,74,0.00,CLR,,0.00,WeatherDisplay:10.37,2013-05-31 14:05:00,
2013-05-31 10:10:00,81.1,70.8,30.04,WSW,251,1.0,3.0,71,0.00,CLR,,0.00,WeatherDisplay:10.37,2013-05-31 14:10:00,
2013-05-31 10:15:00,81.6,70.5,30.04,WNW,286,1.0,3.0,69,0.00,CLR,,0.00,WeatherDisplay:10.37,2013-05-31 14:15:00,
2013-05-31 10:20:00,82.2,70.1,30.03,WNW,301,0.0,4.0,67,0.00,CLR,,0.00,WeatherDisplay:10.37,2013-05-31 14:20:00,
2013-05-31 10:25:00,82.6,70.5,30.03,WNW,286,0.0,4.0,67,0.00,CLR,,0.00,WeatherDisplay:10.37,2013-05-31 14:25:00,
2013-05-31 10:30:00,83.0,70.5,30.03,NW,324,0.0,2.0,66,0.00,CLR,,0.00,WeatherDisplay:10.37,2013-05-31 14:30:00,
2013-05-31 10:35:00,83.3,70.3,30.03,NNW,337,1.0,4.0,65,0.00,CLR,,0.00,WeatherDisplay:10.37,2013-05-31 14:35:00,
2013-05-31 10:40:00,83.5,70.5,30.03,WNW,285,1.0,3.0,65,0.00,CLR,,0.00,WeatherDisplay:10.37,2013-05-31 14:40:00,
2013-05-31 10:45:00,83.7,70.2,30.03,WNW,285,2.0,6.0,64,0.00,CLR,,0.00,WeatherDisplay:10.37,2013-05-31 14:45:00,
2013-05-31 10:50:00,84.0,69.1,30.03,WNW,301,1.0,2.0,61,0.00,CLR,,0.00,WeatherDisplay:10.37,2013-05-31 14:50:00,
2013-05-31 10:55:00,84.4,70.5,30.03,NNW,339,0.0,2.0,63,0.00,CLR,,0.00,WeatherDisplay:10.37,2013-05-31 14:55:00,
2013-05-31 11:00:00,84.8,68.9,30.03,NNW,338,0.0,3.0,59,0.00,CLR,,0.00,WeatherDisplay:10.37,2013-05-31 15:00:00,
2013-05-31 11:05:00,85.0,71.0,30.03,West,260,0.0,3.0,63,0.00,FEW,,0.00,WeatherDisplay:10.37,2013-05-31 15:05:00,
2013-05-31 11:10:00,85.2,69.7,30.02,WSW,242,0.0,1.0,60,0.00,FEW,,0.00,WeatherDisplay:10.37,2013-05-31 15:10:00,
2013-05-31 11:15:00,85.3,71.3,30.02,SW,236,2.0,8.0,63,0.00,FEW,,0.00,WeatherDisplay:10.37,2013-05-31 15:15:00,
2013-05-31 11:20:00,85.5,71.5,30.02,West,277,0.0,2.0,63,0.00,FEW,,0.00,WeatherDisplay:10.37,2013-05-31 15:20:00,
2013-05-31 11:25:00,85.7,69.2,30.02,WNW,290,1.0,8.0,58,0.00,FEW,,0.00,WeatherDisplay:10.37,2013-05-31 15:25:00,
2013-05-31 11:30:00,86.0,71.0,30.02,WSW,253,2.0,3.0,61,0.00,FEW,,0.00,WeatherDisplay:10.37,2013-05-31 15:30:00,
2013-05-31 11:35:00,86.3,71.7,30.02,West,273,1.0,4.0,62,0.00,FEW,,0.00,WeatherDisplay:10.37,2013-05-31 15:35:00,
2013-05-31 11:40:00,86.6,69.6,30.02,West,277,1.0,4.0,57,0.00,FEW,,0.00,WeatherDisplay:10.37,2013-05-31 15:40:00,
2013-05-31 11:45:00,86.8,68.7,30.02,SW,228,1.0,3.0,55,0.00,FEW,,0.00,WeatherDisplay:10.37,2013-05-31 15:45:00,
2013-05-31 11:50:00,87.0,68.9,30.01,SSW,199,0.0,4.0,55,0.00,FEW,,0.00,WeatherDisplay:10.37,2013-05-31 15:50:00,
2013-05-31 11:55:00,87.1,67.3,30.01,SW,227,2.0,5.0,52,0.00,FEW,,0.00,WeatherDisplay:10.37,2013-05-31 15:55:00,
2013-05-31 12:00:00,87.1,66.8,30.01,WSW,258,1.0,3.0,51,0.00,FEW,,0.00,WeatherDisplay:10.37,2013-05-31 16:00:00,
2013-05-31 12:05:00,87.2,66.9,30.01,SW,234,0.0,3.0,51,0.00,FEW,,0.00,WeatherDisplay:10.37,2013-05-31 16:05:00,
2013-05-31 12:10:00,87.4,67.6,30.01,WSW,258,0.0,3.0,52,0.00,FEW,,0.00,WeatherDisplay:10.37,2013-05-31 16:10:00,
2013-05-31 12:15:00,87.6,70.0,30.01,West,280,0.0,3.0,56,0.00,FEW,,0.00,WeatherDisplay:10.37,2013-05-31 16:15:00,
2013-05-31 12:20:00,87.9,68.6,30.00,South,176,1.0,4.0,53,0.00,FEW,,0.00,WeatherDisplay:10.37,2013-05-31 16:20:00,
2013-05-31 12:25:00,88.2,70.5,30.00,SSW,204,1.0,4.0,56,0.00,FEW,,0.00,WeatherDisplay:10.37,2013-05-31 16:25:00,
2013-05-31 12:30:00,88.5,68.1,30.00,West,270,1.0,4.0,51,0.00,FEW,,0.00,WeatherDisplay:10.37,2013-05-31 16:30:00,
2013-05-31 12:35:00,88.6,69.3,30.00,SW,235,2.0,4.0,53,0.00,FEW,,0.00,WeatherDisplay:10.37,2013-05-31 16:35:00,
2013-05-31 12:40:00,88.5,66.3,30.00,SW,214,1.0,4.0,48,0.00,FEW,,0.00,WeatherDisplay:10.37,2013-05-31 16:40:00,
2013-05-31 12:45:00,88.7,65.3,30.00,SW,231,1.0,5.0,46,0.00,FEW,,0.00,WeatherDisplay:10.37,2013-05-31 16:45:00,
2013-05-31 12:50:00,88.8,66.0,30.00,West,260,1.0,4.0,47,0.00,FEW,,0.00,WeatherDisplay:10.37,2013-05-31 16:50:00,
2013-05-31 12:55:00,89.0,67.9,29.99,West,273,1.0,5.0,50,0.00,FEW,,0.00,WeatherDisplay:10.37,2013-05-31 16:55:00,
2013-05-31 13:00:00,89.1,66.2,29.99,WSW,249,1.0,4.0,47,0.00,FEW,,0.00,WeatherDisplay:10.37,2013-05-31 17:00:00,
2013-05-31 13:05:00,89.3,66.4,29.99,WNW,299,0.0,3.0,47,0.00,FEW,,0.00,WeatherDisplay:10.37,2013-05-31 17:05:00,
2013-05-31 13:10:00,89.5,68.4,29.99,West,272,1.0,4.0,50,0.00,FEW,,0.00,WeatherDisplay:10.37,2013-05-31 17:10:00,
2013-05-31 13:15:00,89.5,67.2,29.98,SW,218,1.0,4.0,48,0.00,FEW,,0.00,WeatherDisplay:10.37,2013-05-31 17:15:00,
2013-05-31 13:20:00,89.7,64.2,29.98,WSW,238,2.0,5.0,43,0.00,FEW,,0.00,WeatherDisplay:10.37,2013-05-31 17:20:00,
2013-05-31 13:25:00,90.0,65.8,29.98,WSW,240,1.0,4.0,45,0.00,FEW,,0.00,WeatherDisplay:10.37,2013-05-31 17:25:00,
2013-05-31 13:30:00,90.2,65.3,29.98,West,272,1.0,3.0,44,0.00,FEW,,0.00,WeatherDisplay:10.37,2013-05-31 17:30:00,
2013-05-31 13:40:00,90.8,67.1,29.98,SE,131,0.0,2.0,46,0.00,FEW,,0.00,WeatherDisplay:10.37,2013-05-31 17:40:00,
2013-05-31 13:45:00,91.0,68.0,29.98,North,4,1.0,4.0,47,0.00,FEW,,0.00,WeatherDisplay:10.37,2013-05-31 17:45:00,
2013-05-31 13:50:00,91.5,66.5,29.97,West,276,1.0,3.0,44,0.00,FEW,,0.00,WeatherDisplay:10.37,2013-05-31 17:50:00,
2013-05-31 13:55:00,91.6,63.9,29.97,WNW,290,1.0,6.0,40,0.00,FEW,,0.00,WeatherDisplay:10.37,2013-05-31 17:55:00,
2013-05-31 14:00:00,91.8,69.4,29.97,WNW,293,2.0,5.0,48,0.00,FEW,,0.00,WeatherDisplay:10.37,2013-05-31 18:00:00,
2013-05-31 14:05:00,92.1,70.2,29.97,West,260,1.0,4.0,49,0.00,FEW,,0.00,WeatherDisplay:10.37,2013-05-31 18:05:00,
2013-05-31 14:10:00,92.4,67.4,29.97,West,266,1.0,4.0,44,0.00,FEW,,0.00,WeatherDisplay:10.37,2013-05-31 18:10:00,
2013-05-31 14:20:00,92.3,67.9,29.97,SSW,209,2.0,3.0,45,0.00,FEW,,0.00,WeatherDisplay:10.37,2013-05-31 18:20:00,
2013-05-31 14:25:00,92.1,68.9,29.97,SSW,200,0.0,3.0,47,0.00,FEW,,0.00,WeatherDisplay:10.37,2013-05-31 18:25:00,
2013-05-31 14:30:00,92.3,68.5,29.96,WSW,256,1.0,3.0,46,0.00,FEW,,0.00,WeatherDisplay:10.37,2013-05-31 18:30:00,
2013-05-31 14:35:00,92.4,67.3,29.96,SW,226,3.0,7.0,44,0.00,FEW,,0.00,WeatherDisplay:10.37,2013-05-31 18:35:00,
2013-05-31 14:40:00,92.0,70.7,29.96,SSE,163,0.0,3.0,50,0.00,FEW,,0.00,WeatherDisplay:10.37,2013-05-31 18:40:00,
2013-05-31 14:45:00,91.9,70.0,29.96,South,186,1.0,3.0,49,0.00,FEW,,0.00,WeatherDisplay:10.37,2013-05-31 18:45:00,
2013-05-31 14:50:00,92.0,70.1,29.96,SW,222,1.0,3.0,49,0.00,FEW,,0.00,WeatherDisplay:10.37,2013-05-31 18:50:00,
2013-05-31 14:55:00,92.0,69.5,29.96,SW,215,1.0,2.0,48,0.00,FEW,,0.00,WeatherDisplay:10.37,2013-05-31 18:55:00,
2013-05-31 15:00:00,92.4,68.6,29.96,West,280,1.0,4.0,46,0.00,FEW,,0.00,WeatherDisplay:10.37,2013-05-31 19:00:00,
2013-05-31 15:05:00,92.7,68.2,29.96,West,267,2.0,4.0,45,0.00,SCT,,0.00,WeatherDisplay:10.37,2013-05-31 19:05:00,
2013-05-31 15:10:00,92.3,65.9,29.95,SSW,213,2.0,5.0,42,0.00,SCT,,0.00,WeatherDisplay:10.37,2013-05-31 19:10:00,
2013-05-31 15:15:00,92.2,68.4,29.95,SSW,205,1.0,2.0,46,0.00,SCT,,0.00,WeatherDisplay:10.37,2013-05-31 19:15:00,
2013-05-31 15:20:00,92.4,66.7,29.95,West,272,0.0,7.0,43,0.00,SCT,,0.00,WeatherDisplay:10.37,2013-05-31 19:20:00,
2013-05-31 15:25:00,92.8,69.0,29.95,WSW,254,2.0,4.0,46,0.00,SCT,,0.00,WeatherDisplay:10.37,2013-05-31 19:25:00,
2013-05-31 15:30:00,92.4,67.3,29.95,SW,219,1.0,8.0,44,0.00,SCT,,0.00,WeatherDisplay:10.37,2013-05-31 19:30:00,
2013-05-31 15:35:00,91.8,68.1,29.95,SW,216,1.0,2.0,46,0.00,SCT,,0.00,WeatherDisplay:10.37,2013-05-31 19:35:00,
2013-05-31 15:40:00,91.2,68.1,29.95,SW,221,0.0,2.0,47,0.00,SCT,,0.00,WeatherDisplay:10.37,2013-05-31 19:40:00,
2013-05-31 15:45:00,90.6,66.3,29.94,SSW,213,0.0,2.0,45,0.00,SCT,,0.00,WeatherDisplay:10.37,2013-05-31 19:45:00,
2013-05-31 15:50:00,90.6,70.6,29.94,SSW,194,0.0,2.0,52,0.00,SCT,,0.00,WeatherDisplay:10.37,2013-05-31 19:50:00,
2013-05-31 15:55:00,90.1,70.1,29.94,South,188,0.0,4.0,52,0.00,SCT,,0.00,WeatherDisplay:10.37,2013-05-31 19:55:00,
2013-05-31 16:00:00,89.7,67.4,29.94,South,190,0.0,3.0,48,0.00,SCT,,0.00,WeatherDisplay:10.37,2013-05-31 20:00:00,
2013-05-31 16:05:00,89.8,68.1,29.94,WSW,252,0.0,4.0,49,0.00,SCT,,0.00,WeatherDisplay:10.37,2013-05-31 20:05:00,
2013-05-31 16:10:00,90.0,70.6,29.94,West,259,0.0,2.0,53,0.00,SCT,,0.00,WeatherDisplay:10.37,2013-05-31 20:10:00,
2013-05-31 16:15:00,90.1,68.4,29.94,WSW,241,0.0,1.0,49,0.00,SCT,,0.00,WeatherDisplay:10.37,2013-05-31 20:15:00,
2013-05-31 16:20:00,89.7,69.2,29.93,SW,228,0.0,2.0,51,0.00,SCT,,0.00,WeatherDisplay:10.37,2013-05-31 20:20:00,
2013-05-31 16:25:00,89.2,69.3,29.93,West,275,0.0,1.0,52,0.00,SCT,,0.00,WeatherDisplay:10.37,2013-05-31 20:25:00,
2013-05-31 16:30:00,88.8,71.1,29.93,West,276,1.0,3.0,56,0.00,SCT,,0.00,WeatherDisplay:10.37,2013-05-31 20:30:00,
2013-05-31 16:35:00,88.4,67.4,29.93,West,262,0.0,2.0,50,0.00,SCT,,0.00,WeatherDisplay:10.37,2013-05-31 20:35:00,
2013-05-31 16:40:00,88.2,70.6,29.93,SW,234,1.0,3.0,56,0.00,SCT,,0.00,WeatherDisplay:10.37,2013-05-31 20:40:00,
2013-05-31 16:45:00,87.9,67.5,29.93,SW,230,0.0,3.0,51,0.00,SCT,,0.00,WeatherDisplay:10.37,2013-05-31 20:45:00,
2013-05-31 16:50:00,87.7,68.5,29.92,SW,230,0.0,2.0,53,0.00,SCT,,0.00,WeatherDisplay:10.37,2013-05-31 20:50:00,
2013-05-31 16:55:00,87.7,68.4,29.92,SW,224,0.0,2.0,53,0.00,SCT,,0.00,WeatherDisplay:10.37,2013-05-31 20:55:00,
2013-05-31 17:00:00,87.6,72.0,29.92,SW,232,1.0,3.0,60,0.00,SCT,,0.00,WeatherDisplay:10.37,2013-05-31 21:00:00,
2013-05-31 17:05:00,87.4,70.3,29.92,WSW,242,0.0,2.0,57,0.00,FEW,,0.00,WeatherDisplay:10.37,2013-05-31 21:05:00,
2013-05-31 17:10:00,87.3,68.1,29.92,WSW,249,1.0,3.0,53,0.00,FEW,,0.00,WeatherDisplay:10.37,2013-05-31 21:10:00,
2013-05-31 17:15:00,87.3,71.2,29.92,SSW,204,0.0,3.0,59,0.00,FEW,,0.00,WeatherDisplay:10.37,2013-05-31 21:15:00,
2013-05-31 17:20:00,87.3,69.2,29.91,ESE,107,0.0,2.0,55,0.00,FEW,,0.00,WeatherDisplay:10.37,2013-05-31 21:20:00,
2013-05-31 17:25:00,87.3,69.7,29.91,WSW,257,2.0,6.0,56,0.00,FEW,,0.00,WeatherDisplay:10.37,2013-05-31 21:25:00,
2013-05-31 17:30:00,87.2,70.1,29.92,SW,227,1.0,3.0,57,0.00,FEW,,0.00,WeatherDisplay:10.37,2013-05-31 21:30:00,
2013-05-31 17:35:00,87.0,69.4,29.91,SW,217,1.0,3.0,56,0.00,FEW,,0.00,WeatherDisplay:10.37,2013-05-31 21:35:00,
2013-05-31 17:40:00,86.8,68.7,29.91,SSW,209,2.0,6.0,55,0.00,FEW,,0.00,WeatherDisplay:10.37,2013-05-31 21:40:00,
2013-05-31 17:50:00,86.5,67.3,29.91,SSW,194,2.0,5.0,53,0.00,FEW,,0.00,WeatherDisplay:10.37,2013-05-31 21:50:00,
2013-05-31 17:55:00,86.4,70.4,29.91,SSE,150,1.0,2.0,59,0.00,FEW,,0.00,WeatherDisplay:10.37,2013-05-31 21:55:00,
2013-05-31 18:00:00,86.1,68.0,29.91,SE,138,0.0,2.0,55,0.00,FEW,,0.00,WeatherDisplay:10.37,2013-05-31 22:00:00,
2013-05-31 18:05:00,85.9,68.9,29.91,South,181,1.0,3.0,57,0.00,FEW,,0.00,WeatherDisplay:10.37,2013-05-31 22:05:00,
2013-05-31 18:10:00,85.7,69.2,29.91,SSW,197,1.0,2.0,58,0.00,FEW,,0.00,WeatherDisplay:10.37,2013-05-31 22:10:00,
2013-05-31 18:15:00,85.5,68.5,29.90,SSW,193,0.0,2.0,57,0.00,FEW,,0.00,WeatherDisplay:10.37,2013-05-31 22:15:00,
2013-05-31 18:20:00,85.4,68.4,29.90,South,188,0.0,2.0,57,0.00,FEW,,0.00,WeatherDisplay:10.37,2013-05-31 22:20:00,
2013-05-31 18:25:00,85.2,69.7,29.90,SSE,167,0.0,2.0,60,0.00,FEW,,0.00,WeatherDisplay:10.37,2013-05-31 22:25:00,
2013-05-31 18:30:00,85.0,68.1,29.90,NE,55,0.0,1.0,57,0.00,FEW,,0.00,WeatherDisplay:10.37,2013-05-31 22:30:00,
2013-05-31 18:35:00,84.9,68.0,29.90,North,359,0.0,1.0,57,0.00,FEW,,0.00,WeatherDisplay:10.37,2013-05-31 22:35:00,
2013-05-31 18:40:00,84.7,70.3,29.90,North,9,0.0,4.0,62,0.00,FEW,,0.00,WeatherDisplay:10.37,2013-05-31 22:40:00,
2013-05-31 18:45:00,84.5,67.6,29.90,South,185,0.0,2.0,57,0.00,FEW,,0.00,WeatherDisplay:10.37,2013-05-31 22:45:00,
2013-05-31 18:50:00,84.3,68.0,29.90,South,190,0.0,1.0,58,0.00,FEW,,0.00,WeatherDisplay:10.37,2013-05-31 22:50:00,
2013-05-31 18:55:00,84.3,67.4,29.90,South,190,0.0,0.0,57,0.00,FEW,,0.00,WeatherDisplay:10.37,2013-05-31 22:55:00,
2013-05-31 19:00:00,84.1,68.7,29.90,South,190,0.0,0.0,60,0.00,FEW,,0.00,WeatherDisplay:10.37,2013-05-31 23:00:00,
2013-05-31 19:05:00,83.9,68.0,29.90,South,189,0.0,0.0,59,0.00,CLR,,0.00,WeatherDisplay:10.37,2013-05-31 23:05:00,
2013-05-31 19:10:00,83.6,67.8,29.90,South,189,0.0,0.0,59,0.00,CLR,,0.00,WeatherDisplay:10.37,2013-05-31 23:10:00,
2013-05-31 19:15:00,83.3,69.4,29.90,South,189,0.0,0.0,63,0.00,CLR,,0.00,WeatherDisplay:10.37,2013-05-31 23:15:00,
2013-05-31 19:20:00,82.9,69.0,29.90,South,189,0.0,0.0,63,0.00,CLR,,0.00,WeatherDisplay:10.37,2013-05-31 23:20:00,
2013-05-31 19:25:00,82.6,69.6,29.90,South,189,0.0,0.0,65,0.00,CLR,,0.00,WeatherDisplay:10.37,2013-05-31 23:25:00,
2013-05-31 19:30:00,82.2,69.7,29.90,South,189,0.0,0.0,66,0.00,CLR,,0.00,WeatherDisplay:10.37,2013-05-31 23:30:00,
2013-05-31 19:35:00,81.8,69.7,29.90,South,189,0.0,0.0,67,0.00,CLR,,0.00,WeatherDisplay:10.37,2013-05-31 23:35:00,
2013-05-31 19:40:00,81.3,69.8,29.90,South,189,0.0,0.0,68,0.00,CLR,,0.00,WeatherDisplay:10.37,2013-05-31 23:40:00,
2013-05-31 19:45:00,80.9,69.8,29.90,South,189,0.0,0.0,69,0.00,CLR,,0.00,WeatherDisplay:10.37,2013-05-31 23:45:00,
2013-05-31 19:50:00,80.5,70.2,29.90,South,189,0.0,0.0,71,0.00,CLR,,0.00,WeatherDisplay:10.37,2013-05-31 23:50:00,
2013-05-31 20:00:00,79.6,70.2,29.90,South,189,0.0,0.0,73,0.00,CLR,,0.00,WeatherDisplay:10.37,2013-06-01 00:00:00,
2013-05-31 20:05:00,79.2,70.2,29.91,South,189,0.0,0.0,74,0.00,CLR,,0.00,WeatherDisplay:10.37,2013-06-01 00:05:00,
2013-05-31 20:10:00,78.7,70.1,29.91,South,189,0.0,0.0,75,0.00,CLR,,0.00,WeatherDisplay:10.37,2013-06-01 00:10:00,
2013-05-31 20:15:00,78.3,70.9,29.91,South,189,0.0,0.0,78,0.00,CLR,,0.00,WeatherDisplay:10.37,2013-06-01 00:15:00,
2013-05-31 20:20:00,77.8,69.7,29.91,South,189,0.0,0.0,76,0.00,CLR,,0.00,WeatherDisplay:10.37,2013-06-01 00:20:00,
2013-05-31 20:25:00,77.4,70.0,29.91,South,189,0.0,0.0,78,0.00,CLR,,0.00,WeatherDisplay:10.37,2013-06-01 00:25:00,
2013-05-31 20:30:00,77.0,69.6,29.91,South,189,0.0,0.0,78,0.00,CLR,,0.00,WeatherDisplay:10.37,2013-06-01 00:30:00,
2013-05-31 20:35:00,76.5,69.9,29.91,South,189,0.0,0.0,80,0.00,CLR,,0.00,WeatherDisplay:10.37,2013-06-01 00:35:00,
2013-05-31 20:40:00,76.1,68.7,29.91,South,189,0.0,0.0,78,0.00,CLR,,0.00,WeatherDisplay:10.37,2013-06-01 00:40:00,
2013-05-31 20:45:00,75.7,69.1,29.91,South,189,0.0,0.0,80,0.00,CLR,,0.00,WeatherDisplay:10.37,2013-06-01 00:45:00,
2013-05-31 20:50:00,75.3,68.7,29.91,South,189,0.0,0.0,80,0.00,CLR,,0.00,WeatherDisplay:10.37,2013-06-01 00:50:00,
2013-05-31 20:55:00,74.9,68.7,29.91,South,189,0.0,0.0,81,0.00,CLR,,0.00,WeatherDisplay:10.37,2013-06-01 00:55:00,
2013-05-31 21:00:00,74.5,67.9,29.92,South,189,0.0,0.0,80,0.00,CLR,,0.00,WeatherDisplay:10.37,2013-06-01 01:00:00,
2013-05-31 21:05:00,74.2,68.0,29.92,South,189,0.0,0.0,81,0.00,CLR,,0.00,WeatherDisplay:10.37,2013-06-01 01:05:00,
2013-05-31 21:10:00,73.9,68.4,29.92,South,189,0.0,0.0,83,0.00,CLR,,0.00,WeatherDisplay:10.37,2013-06-01 01:10:00,
2013-05-31 21:20:00,73.4,68.2,29.93,South,189,0.0,0.0,84,0.00,CLR,,0.00,WeatherDisplay:10.37,2013-06-01 01:20:00,
2013-05-31 21:25:00,73.1,68.0,29.93,South,189,0.0,0.0,84,0.00,CLR,,0.00,WeatherDisplay:10.37,2013-06-01 01:25:00,
2013-05-31 21:30:00,72.9,68.1,29.93,South,189,0.0,1.0,85,0.00,CLR,,0.00,WeatherDisplay:10.37,2013-06-01 01:30:00,
2013-05-31 21:35:00,72.7,67.9,29.93,South,189,0.0,0.0,85,0.00,CLR,,0.00,WeatherDisplay:10.37,2013-06-01 01:35:00,
2013-05-31 21:40:00,72.6,67.8,29.93,South,189,0.0,0.0,85,0.00,CLR,,0.00,WeatherDisplay:10.37,2013-06-01 01:40:00,
2013-05-31 21:45:00,72.4,68.0,29.94,South,189,0.0,0.0,86,0.00,CLR,,0.00,WeatherDisplay:10.37,2013-06-01 01:45:00,
2013-05-31 21:50:00,72.4,68.0,29.94,South,189,0.0,0.0,86,0.00,CLR,,0.00,WeatherDisplay:10.37,2013-06-01 01:50:00,
2013-05-31 21:55:00,72.3,68.2,29.94,South,189,0.0,0.0,87,0.00,CLR,,0.00,WeatherDisplay:10.37,2013-06-01 01:55:00,
2013-05-31 22:00:00,72.3,68.2,29.93,South,189,0.0,0.0,87,0.00,CLR,,0.00,WeatherDisplay:10.37,2013-06-01 02:00:00,
2013-05-31 22:05:00,72.2,68.1,29.94,South,189,0.0,0.0,87,0.00,CLR,,0.00,WeatherDisplay:10.37,2013-06-01 02:05:00,
2013-05-31 22:10:00,72.2,68.1,29.94,South,189,0.0,0.0,87,0.00,CLR,,0.00,WeatherDisplay:10.37,2013-06-01 02:10:00,
2013-05-31 22:15:00,72.2,67.8,29.94,South,189,0.0,0.0,86,0.00,CLR,,0.00,WeatherDisplay:10.37,2013-06-01 02:15:00,
2013-05-31 22:20:00,72.1,68.0,29.94,South,189,0.0,0.0,87,0.00,CLR,,0.00,WeatherDisplay:10.37,2013-06-01 02:20:00,
2013-05-31 22:25:00,72.1,68.0,29.94,South,189,0.0,0.0,87,0.00,CLR,,0.00,WeatherDisplay:10.37,2013-06-01 02:25:00,
2013-05-31 22:30:00,72.0,67.9,29.94,South,189,0.0,0.0,87,0.00,CLR,,0.00,WeatherDisplay:10.37,2013-06-01 02:30:00,
2013-05-31 22:35:00,71.9,67.8,29.94,South,189,0.0,0.0,87,0.00,CLR,,0.00,WeatherDisplay:10.37,2013-06-01 02:35:00,
2013-05-31 22:40:00,71.9,67.8,29.94,South,189,0.0,0.0,87,0.00,CLR,,0.00,WeatherDisplay:10.37,2013-06-01 02:40:00,
2013-05-31 22:45:00,71.7,67.3,29.94,South,189,0.0,0.0,86,0.00,CLR,,0.00,WeatherDisplay:10.37,2013-06-01 02:45:00,
2013-05-31 22:50:00,71.7,67.6,29.94,South,189,0.0,0.0,87,0.00,CLR,,0.00,WeatherDisplay:10.37,2013-06-01 02:50:00,
2013-05-31 22:55:00,71.6,67.5,29.94,South,189,0.0,0.0,87,0.00,CLR,,0.00,WeatherDisplay:10.37,2013-06-01 02:55:00,
2013-05-31 23:00:00,71.5,67.4,29.94,South,189,0.0,0.0,87,0.00,CLR,,0.00,WeatherDisplay:10.37,2013-06-01 03:00:00,
2013-05-31 23:05:00,71.4,67.3,29.94,South,189,0.0,0.0,87,0.00,CLR,,0.00,WeatherDisplay:10.37,2013-06-01 03:05:00,
2013-05-31 23:10:00,71.3,67.6,29.94,South,189,0.0,0.0,88,0.00,CLR,,0.00,WeatherDisplay:10.37,2013-06-01 03:10:00,
2013-05-31 23:15:00,71.2,67.5,29.94,South,189,0.0,0.0,88,0.00,CLR,,0.00,WeatherDisplay:10.37,2013-06-01 03:15:00,
2013-05-31 23:20:00,71.2,67.8,29.94,South,189,0.0,0.0,89,0.00,CLR,,0.00,WeatherDisplay:10.37,2013-06-01 03:20:00,
2013-05-31 23:25:00,71.1,67.7,29.94,South,189,0.0,0.0,89,0.00,CLR,,0.00,WeatherDisplay:10.37,2013-06-01 03:25:00,
2013-05-31 23:30:00,71.0,67.6,29.94,South,189,0.0,0.0,89,0.00,CLR,,0.00,WeatherDisplay:10.37,2013-06-01 03:30:00,
2013-05-31 23:35:00,70.8,67.4,29.94,South,189,0.0,0.0,89,0.00,CLR,,0.00,WeatherDisplay:10.37,2013-06-01 03:35:00,
2013-05-31 23:40:00,70.7,67.6,29.94,South,189,0.0,0.0,90,0.00,CLR,,0.00,WeatherDisplay:10.37,2013-06-01 03:40:00,
2013-05-31 23:45:00,70.6,67.5,29.94,South,189,0.0,0.0,90,0.00,CLR,,0.00,WeatherDisplay:10.37,2013-06-01 03:45:00,
2013-05-31 23:50:00,70.5,67.4,29.94,South,189,0.0,0.0,90,0.00,CLR,,0.00,WeatherDisplay:10.37,2013-06-01 03:50:00,
2013-05-31 23:55:00,70.4,67.3,29.94,South,189,0.0,0.0,90,0.00,CLR,,0.00,WeatherDisplay:10.37,2013-06-01 03:55:00,